Content
SEND FEEDBACK

Daily
Averages
Monthly
Summary
French Polynesia

PAPEETE, FRENCH POLYNESIA


Home > Oceania > French Polynesia
Elevation: 2 meters     Latitude: 17 33S     Longitude: 149 36W

WEATHER
 
SELECT A DAY
Number of Records: 214,112;   Date Range: 6/30/96 - 10/18/14
 
SHARE

PRINT THIS DATA

[ ← Previous Day ]
WEATHER ALMANAC - 19 MARCH, 2013
[ Next Day → ]
[ °F ]   °C
Weather ElementAverageHighLow
Temperature27.7 °C31 °C (11:04 am)25 °C (12:30 am)
Dewpoint22.5 °C24 °C (2:00 pm)21 °C (12:30 am)
Humidity72.3 %83 % (4:30 am)54 % (11:00 am)
Barometer1013.9 hPa1016.3 hPa (10:30 pm)1012.2 hPa (1:30 am)
Wind Speed7.7 km/h21.6 km/h (11:00 am)
Weather ElementAverage
Visibility12.2 km
Wind DirectionESE (120.7 °)

Weather ElementTotal
Precipitation---
Cooling Degree Days9.7 (Base 18.3)
Growing Degree Days18 (Base 10)
Averaged from 55 records on 19 March, 2013
WEATHER CONDITIONS BREAKOUT
WIND DIRECTION BREAKOUT
WEATHER BY HOUR - 19 MARCH, 2013
[ °F ]   °C
Local TimeTemperatureDewpointHumidityBarometerVisibilityWind DirectionWind SpeedGust SpeedPrecipitationEventsConditions
12:30 AM25 °C21 °C78 %1013.2 hPa10 kmEast (90°)5.6 km/hMostly Cloudy
1:00 AM25 °C21 °C78 %1013.2 hPa10 kmESE (120°)5.6 km/hMostly Cloudy
1:30 AM26 °C21 °C74 %1012.2 hPa10 kmCalmMostly Cloudy
2:00 AM25.6 °C21.1 °C69 %1012.5 hPa19.3 kmEast (80°)5.6 km/hPartly Cloudy
2:00 AM25 °C21 °C78 %1012.2 hPa10 kmEast (80°)5.6 km/hMostly Cloudy
2:30 AM25 °C21 °C78 %1012.2 hPa10 kmSSE (150°)5.6 km/hScattered Clouds
3:00 AM25 °C21 °C78 %1012.2 hPa10 kmESE (120°)3.7 km/hScattered Clouds
3:30 AM25 °C21 °C78 %1012.2 hPa10 kmVariable5.6 km/h
4:00 AM25 °C21 °C78 %1012.2 hPa10 kmVariable3.7 km/h
4:30 AM25 °C22 °C83 %1012.2 hPa10 kmSSE (150°)3.7 km/h
5:00 AM25 °C21.7 °C76 %1012.5 hPa59.5 kmESE (120°)3.5 km/hClear
5:00 AM25 °C22 °C83 %1012.2 hPa10 kmVariable1.9 km/h
5:30 AM25 °C21 °C78 %1013.2 hPa10 kmVariable3.7 km/h
6:00 AM25 °C21 °C78 %1013.2 hPa10 kmENE (70°)9.3 km/hMostly Cloudy
6:30 AM25 °C21 °C78 %1014.2 hPa10 kmEast (100°)7.4 km/hScattered Clouds
7:00 AM26 °C21 °C74 %1014.2 hPa10 kmEast (100°)7.4 km/hPartly Cloudy
7:30 AM28 °C22 °C70 %1014.2 hPa10 kmCalmPartly Cloudy
8:00 AM28.3 °C21.7 °C60 %1015.2 hPa25.7 kmWSW (250°)3.7 km/hPartly Cloudy
8:00 AM29 °C22 °C66 %1015.2 hPa10 kmVariable3.7 km/hPartly Cloudy
8:30 AM29 °C23 °C70 %1015.2 hPa10 kmSW (220°)9.3 km/hPartly Cloudy
9:00 AM30 °C23 °C66 %1015.2 hPa10 kmSW (230°)9.3 km/hScattered Clouds
9:30 AM30 °C23 °C66 %1015.2 hPa10 kmWSW (240°)7.4 km/hPartly Cloudy
10:00 AM29 °C23 °C70 %1015.2 hPa10 kmWest (280°)5.6 km/hScattered Clouds
10:30 AM30 °C23 °C66 %1014.2 hPa10 kmSW (230°)7.4 km/hScattered Clouds
11:00 AM30.6 °C22.8 °C54 %1014.6 hPa19.3 kmSW (230°)21.6 km/hScattered Clouds
11:04 AM31 °C23 °C62 %1014.2 hPa10 kmSW (230°)11.1 km/hPartly Cloudy
11:30 AM30 °C23 °C66 %1014.2 hPa10 kmSW (220°)11.1 km/hMostly Cloudy
12:00 PM31 °C23 °C62 %1014.2 hPa10 kmSW (230°)11.1 km/hMostly Cloudy
12:30 PM31 °C23 °C62 %1013.2 hPa10 kmSW (230°)9.3 km/hScattered Clouds
1:00 PM31 °C23 °C62 %1013.2 hPa10 kmVariable3.7 km/hScattered Clouds
1:30 PM30 °C23 °C66 %1013.2 hPa10 kmSSW (210°)9.3 km/hScattered Clouds
2:00 PM30.6 °C23.9 °C60 %1013.2 hPa19.3 kmSSW (200°)16.7 km/hThunderstormThunderstorm
2:00 PM30 °C24 °C70 %1013.2 hPa10 kmSSW (200°)16.7 km/hThunderstormScattered Clouds
2:30 PM29 °C24 °C74 %1012.2 hPa10 kmSouth (190°)14.8 km/hScattered Clouds
3:00 PM29 °C23 °C70 %1012.2 hPa10 kmSSE (160°)11.1 km/hScattered Clouds
3:30 PM29 °C23 °C70 %1012.2 hPa10 kmSSW (200°)7.4 km/hMostly Cloudy
4:00 PM29 °C24 °C74 %1012.2 hPa10 kmSouth (190°)11.1 km/hMostly Cloudy
4:30 PM29 °C24 °C74 %1012.2 hPa10 kmSSW (200°)11.1 km/hMostly Cloudy
5:00 PM28.9 °C23.3 °C66 %1012.9 hPa25.7 kmSSW (200°)14.8 km/hPartly Cloudy
5:00 PM29 °C24 °C74 %1012.2 hPa10 kmSSW (200°)14.8 km/hMostly Cloudy
5:30 PM29 °C23 °C70 %1013.2 hPa10 kmSouth (190°)13 km/hMostly Cloudy
6:00 PM28 °C23 °C74 %1013.2 hPa10 kmVariable5.6 km/hMostly Cloudy
6:30 PM28 °C23 °C74 %1013.2 hPa10 kmVariable5.6 km/hMostly Cloudy
7:00 PM28 °C23 °C74 %1014.2 hPa10 kmEast (100°)5.6 km/hMostly Cloudy
7:30 PM27 °C23 °C79 %1014.2 hPa10 kmVariable3.7 km/hMostly Cloudy
8:00 PM27.2 °C23.3 °C72 %1015.2 hPa19.3 kmEast (100°)10.8 km/hPartly Cloudy
8:00 PM27 °C23 °C79 %1015.2 hPa10 kmVariable5.6 km/hMostly Cloudy
8:30 PM27 °C23 °C79 %1015.2 hPa10 kmVariable3.7 km/hMostly Cloudy
9:00 PM27 °C23 °C79 %1015.2 hPa10 kmCalmScattered Clouds
9:30 PM27 °C23 °C79 %1015.2 hPa10 kmVariable1.9 km/hScattered Clouds
10:00 PM27 °C23 °C79 %1015.2 hPa10 kmSSE (160°)7.4 km/hScattered Clouds
10:30 PM27 °C23 °C79 %1016.3 hPa10 kmENE (60°)9.3 km/hThunderstormScattered Clouds
11:00 PM26.7 °C22.2 °C71 %1015.6 hPa19.3 kmEast (100°)11.1 km/hThunderstormThunderstorm
11:00 PM27 °C22 °C74 %1015.2 hPa10 kmEast (100°)11.1 km/hThunderstormScattered Clouds
11:30 PM26 °C22 °C78 %1015.2 hPa10 kmESE (110°)5.6 km/hScattered Clouds
Hourly data recorded from NTAA, located 0 kilometers away from Papeete, French Polynesia







STORIES FROM OUR PARTNERS